Location: Little Ridge
(33.0629°N, 96.4547°W)
Time: 14:48:49
(UTC+00:00)

CZ-4B R/B - Pass Details

Date: 08 December 2021
Orbit: 378 x 440 km, 97.6° (Epoch: 28 January)

Event Time Altitude Azimuth Distance (km) Brightness Sun altitude
Rises 12:30:14 0° 139° (SE) 2,418 6.3 -9.8°
Reaches altitude 10° 12:32:36 10° 122° (ESE) 1,545 5.7 -9.3°
Maximum altitude 12:35:06 20° 72° (ENE) 1,063 4.0 -8.8°
Drops below altitude 10° 12:37:34 10° 23° (NNE) 1,531 4.1 -8.3°
Sets 12:39:54 0° 6° (N) 2,389 4.9 -7.9°
